Powrót do katalogu

ECHO 1 DEB

METAL OBJ

AktywnyLEO
NORAD 53·DEBRIS·🇺🇸 United States

Wystrzelony Aug 12, 1960 z Cape Canaveral Space Force Station

Loading…

Następne Przeloty (najbliższe 24 godziny)

TLE

ŚwieżeSource: Space-Track

Epoka: Sep 14, 2026, 05:10 UTC

1 00053U 60009E   26257.21566642 -.00000088  00000-0 -29809-4 0  9997
2 00053  47.2770  67.6989 0098023 339.5538  20.1341 12.17412847946276

Śledź ECHO 1 DEB w czasie rzeczywistym z AllMySat

Download on the App Store